Flag for South Korea Weather past 2 weeks in Incheon, South Korea

Now
25 °F

Passing clouds.


Feels Like: 15 °F
Forecast: 21 / 30 °F
Wind: 10 mph from North

Location: Incheon International Airport

Current Time: Jan 30, 2015 at 1:50:45 AM

Latest Report: Jan 30, 2015 at 1:30 AM


Visibility: N/A

Pressure: 30.27 "Hg

Humidity: 69%

Dew point: 16 °F

Location of IncheonLocation

Historic Weather in Incheon — Graph

°F

Incheon temperature yesterday

Maximum temperature yesterday: 34 °F (at 12:30 PM)
Minimum temperature yesterday: 23 °F (at 12:00 AM)
Average temperature yesterday: 28 °F

Past Weeks' High & Low Weather Summary

 TemperatureHumidityPressure
High43 °F (Jan 15, 1:30 PM)100% (Jan 26, 4:00 AM)30.48 "Hg (Jan 26, 4:00 AM)
Low16 °F (Jan 28, 7:30 AM)31% (Jan 17, 3:30 PM)29.98 "Hg (Jan 18, 9:00 PM)
Average31 °F65%30.24 "Hg
* Reported Midnight between Jan 14 and Jan 15 — Jan 30 12:30 AM, Incheon, Weather by CustomWeather, © 2014

Note: Actual official high and low records may vary slightly from our data, if they occured in-between our weather recording intervals... More about our weather records

Advertising

Incheon weather history for previous 24 hours

 ConditionsComfort  
Time TempWeatherWind HumidityBarometerVisibility
12:30 AM
Jan 30
25 °FPassing clouds.6 mph59%30.27 "HgN/A
12:00 AM28 °FPassing clouds.9 mph51%30.30 "HgN/A
11:30 PM
Jan 29
30 °FPassing clouds.8 mph43%30.30 "HgN/A
11:00 PM30 °FPassing clouds.12 mph40%30.30 "HgN/A
10:30 PM30 °FPassing clouds.14 mph47%30.30 "HgN/A
10:00 PM30 °FPassing clouds.8 mph55%30.27 "HgN/A
9:30 PM30 °FPassing clouds.8 mph59%30.30 "HgN/A
9:00 PM30 °FPassing clouds.7 mph55%30.27 "HgN/A
8:30 PM30 °FPassing clouds.6 mph55%30.27 "HgN/A
8:00 PM30 °FClear.3 mph59%30.27 "Hg10 mi
7:30 PM30 °FClear.3 mph55%30.27 "Hg10 mi
7:00 PM30 °FClear.5 mph55%30.27 "Hg10 mi
6:30 PM30 °FSunny.6 mph55%30.27 "Hg10 mi
6:00 PM32 °FSunny.9 mph47%30.27 "Hg10 mi
5:30 PM32 °FPartly sunny.8 mph51%30.27 "HgN/A
5:00 PM32 °FSunny.10 mph47%30.27 "Hg10 mi
4:30 PM32 °FSunny.10 mph55%30.27 "Hg10 mi
4:00 PM32 °FSunny.10 mph55%30.27 "Hg10 mi
3:30 PM34 °FSunny.8 mph51%30.27 "Hg10 mi
3:00 PM34 °FSunny.9 mph51%30.27 "Hg10 mi
2:30 PM34 °FPartly sunny.10 mph51%30.30 "HgN/A
2:00 PM34 °FPartly sunny.7 mph51%30.30 "HgN/A
1:30 PM32 °FPartly sunny.6 mph55%30.30 "HgN/A
1:00 PM34 °FPartly sunny.7 mph51%30.30 "HgN/A
12:30 PM34 °FBroken clouds.7 mph48%30.33 "HgN/A
12:00 PM32 °FMore clouds than sun.7 mph51%30.33 "HgN/A
11:30 AM30 °FSunny.7 mph55%30.36 "Hg10 mi
11:00 AM28 °FSunny.8 mph59%30.36 "Hg10 mi
10:30 AM28 °FSunny.8 mph55%30.36 "Hg10 mi
10:00 AM28 °FSunny.6 mph59%30.36 "Hg10 mi
9:30 AM27 °FSunny.8 mph64%30.36 "Hg10 mi
9:00 AM25 °FSunny.7 mph69%30.36 "Hg10 mi
8:30 AM25 °FClear.7 mph69%30.36 "Hg10 mi
8:00 AM25 °FClear.6 mph69%30.36 "Hg10 mi
7:30 AM25 °FClear.7 mph63%30.36 "Hg10 mi
7:00 AM25 °FClear.7 mph59%30.36 "Hg10 mi
6:30 AM23 °FClear.8 mph68%30.36 "Hg10 mi
6:00 AM23 °FClear.9 mph68%30.36 "Hg10 mi
5:30 AM23 °FClear.9 mph68%30.39 "Hg10 mi
5:00 AM23 °FClear.10 mph63%30.39 "Hg10 mi
4:30 AM23 °FClear.10 mph68%30.39 "Hg10 mi
4:00 AM23 °FClear.9 mph63%30.39 "Hg10 mi
3:30 AM25 °FClear.6 mph59%30.42 "Hg10 mi
3:00 AM25 °FClear.7 mph63%30.42 "Hg10 mi
2:30 AM23 °FClear.7 mph68%30.42 "Hg10 mi
2:00 AM23 °FClear.5 mph74%30.39 "Hg10 mi
1:30 AM23 °FClear.3 mph74%30.42 "Hg10 mi
1:00 AM23 °FClear.3 mph68%30.42 "Hg10 mi
Weather by CustomWeather, © 2014

See weather overviewHow to use our weather pages